« Back
NWS Peachtree City, Ga » Text Product » GA Regional Weather Roundup


Printer-friendly Version
Current Version              Previous Versions:   1  2  3  4  5  6  7  8  9  

Regional Weather Roundup

144
ASUS42 KFFC 021203
RWRGA
WEATHER ROUNDUP FOR GEORGIA
NATIONAL WEATHER SERVICE PEACHTREE CITY GA
800 AM EDT TUE SEP 02 2014

NOTE: "FAIR" INDICATES FEW OR NO CLOUDS BELOW 12,000 FEET WITH NO
SIGNIFICANT WEATHER AND/OR OBSTRUCTIONS TO VISIBILITY.

* = USE WITH CAUTION. THE STATIONS MARKED WITH AN ASTERISK MAY NOT
REPORT WEATHER SUCH AS PRECIPITATION, FOG, OR THUNDER AND ARE NOT
QUALITY CONTROLLED BY NWS.

THE REMARK "TC" DENOTES TEMPERATURE READING IN DEGREES CELSIUS.

GAZ001>058-021300-
NORTH GEORGIA

CITY           SKY/WX    TMP DP  RH WIND       PRES   REMARKS
ATLANTA        MOCLDY    73  70  90 NW6       30.12R
6HR MIN TEMP:  72; 6HR MAX TEMP:  74;

ATHENS         MOCLDY    73  70  90 CALM      30.11S
6HR MIN TEMP:  70; 6HR MAX TEMP:  73;

CHAMBLEE       PTCLDY    70  68  93 CALM      30.12R
6HR MIN TEMP:  70; 6HR MAX TEMP:  72;

PEACHTREE CITY CLEAR     69  68  96 CALM      30.13R
6HR MIN TEMP:  68; 6HR MAX TEMP:  71;

ROME           CLEAR     69  67  93 CALM      30.11R
6HR MIN TEMP:  67; 6HR MAX TEMP:  72;

WEST ATLANTA   CLEAR     70  68  93 CALM      30.12R
6HR MIN TEMP:  70; 6HR MAX TEMP:  74;

GAINESVILLE    MOCLDY    74  70  87 W3        30.15R
6HR MIN TEMP:  71; 6HR MAX TEMP:  75;

CARTERSVILLE   CLEAR     69  67  93 CALM      30.12R
6HR MIN TEMP:  67; 6HR MAX TEMP:  72;



CITY           SKY/WX    TMP DP  RH WIND       PRES   REMARKS
DALTON*        MOCLDY    70  70 100 CALM      30.12R
LAWRENCEVILLE* CLEAR     72  66  83 CALM      30.12R
MARIETTA       PTCLDY    71  70  97 CALM      30.13R
KENNESAW*      PTCLDY    72  68  88 CALM      30.14R
$$

GAZ059>098-102>109-021300-
CENTRAL GEORGIA

CITY           SKY/WX    TMP DP  RH WIND       PRES   REMARKS
AUGUSTA-BUSH   PTSUNNY   75  73  93 CALM      30.09R
6HR MIN TEMP:  72; 6HR MAX TEMP:  75;

AUGUSTA-DANIEL PTSUNNY   77  71  82 NW6       30.11R
6HR MIN TEMP:  76; 6HR MAX TEMP:  79;

COLUMBUS       CLEAR     73  71  93 CALM      30.11R
6HR MIN TEMP:  73; 6HR MAX TEMP:  75;

MACON          MOCLDY    72  72 100 CALM      30.11R
6HR MIN TEMP:  71; 6HR MAX TEMP:  73;

ROBINS AFB     MOCLDY    74  73  96 NW1       30.10R


CITY           SKY/WX    TMP DP  RH WIND       PRES   REMARKS
LAGRANGE*      CLEAR     73  72  98 CALM      30.12R
SYLVANIA*      SUNNY     73  73  98 SE3       30.10R FOG
$$

GAZ099>101-110>166-021300-
SOUTH GEORGIA

CITY           SKY/WX    TMP DP  RH WIND       PRES   REMARKS
SAVANNAH       MOSUNNY   78  74  87 S3        30.09R
6HR MIN TEMP:  76; 6HR MAX TEMP:  81;

VALDOSTA       CLEAR     74  72  93 NE5       30.10R
6HR MIN TEMP:  71; 6HR MAX TEMP:  74; 6HR PCP: TRACE;

ALMA           PTSUNNY   75  73  93 CALM      30.09R
6HR MIN TEMP:  72; 6HR MAX TEMP:  78;

ST SIMONS      SUNNY     79  74  84 SW3       30.09R
6HR MIN TEMP:  78; 6HR MAX TEMP:  81;

FT STEWART     SUNNY     75  73  92 CALM      30.08S
ALBANY         PTCLDY    74  73  97 CALM      30.12R
HUNTER AFB     SUNNY     76  76  98 E1        30.07R
MOODY AFB      CLEAR     73  71  95 CALM      30.10R
BRUNSWICK      SUNNY     79  73  83 CALM      30.09S


CITY           SKY/WX    TMP DP  RH WIND       PRES   REMARKS
BAINBRIDGE*    PTCLDY    77  75  94 CALM      30.11R
MOULTRIE*      PTCLDY    73  72  94 CALM      30.11R
VIDALIA*         N/A     77  73  88 CALM      30.10R
WAYCROSS*      PTSUNNY   78  77  96 CALM      30.09S
DOUGLAS*       PTSUNNY   75  73  94 CALM      30.11R
$$



USA.gov is the U.S. government's official web portal to all federal, state and local government web resources and services.